Change the Weather History Date:

Monday, May 5, 2014

  Actual Average Record
Temperature  
Mean Temperature 56 °F -  
Max Temperature 66 °F 70 °F 89 °F (1955)
Min Temperature 46 °F 48 °F 36 °F (1966)
Degree Days  
Heating Degree Days 9    
Growing Degree Days 6 (Base 50)    
Moisture  
Dew Point 37 °F    
Average Humidity 47    
Maximum Humidity 66    
Minimum Humidity 30    
Precipitation  
Precipitation 0.00 in - - ()
Sea Level Pressure  
Sea Level Pressure 29.91 in    
Wind  
Wind Speed 12 mph (WNW)    
Max Wind Speed 17 mph    
Max Gust Speed 22 mph    
Visibility 10 miles    
Events      
Averages and records for this station are not official NWS values.
T = Trace of Precipitation, MM = Missing Value Source: NWS Daily Summary

Daily Weather History Graph

Daily Weather History Graph

Search for Another Location

Airport or City:

Trip Planner

Search our weather history database for the weather conditions in past years. The results will help you decide how hot, cold, wet, or windy it might be!

Date:

Astronomy

May. 05, 2014 Rise Set
Actual Time 5:58 AM EDT 7:58 PM EDT
Civil Twilight 5:29 AM EDT 8:28 PM EDT
Nautical Twilight 4:54 AM EDT 9:03 PM EDT
Astronomical Twilight 4:15 AM EDT 9:42 PM EDT
Moon 11:16 AM EDT (5/5) 12:41 AM EDT (5/5)
Length of Visible Light 14h 58m
Length of Day
13h 59m
Waxing Crescent, 36% of the Moon is Illuminated
May 5
Waxing Crescent
May 6
First Quarter
May 14
Full
May 21
Last Quarter
May 28
New

Hourly Weather History & Observations

Time (EDT) Temp. Windchill Dew Point Humidity Pressure Visibility Wind Dir Wind Speed Gust Speed Precip Events Conditions
12:58 AM 53.8 °F - 33.1 °F 45% 29.88 in 10.0 mi WNW 16.1 mph - N/A   Clear
1:58 AM 52.7 °F - 32.9 °F 47% 29.89 in 10.0 mi WNW 12.7 mph - N/A   Clear
2:58 AM 50.9 °F - 33.4 °F 51% 29.89 in 10.0 mi WNW 15.0 mph - N/A   Clear
3:58 AM 49.1 °F - 33.8 °F 56% 29.90 in 10.0 mi WNW 9.2 mph - N/A   Clear
4:58 AM 48.0 °F - 34.5 °F 60% 29.92 in 10.0 mi West 8.1 mph - N/A   Clear
5:58 AM 46.0 °F 41.4 °F 35.1 °F 66% 29.93 in 10.0 mi NW 9.2 mph - N/A   Clear
6:58 AM 48.2 °F - 36.3 °F 63% 29.95 in 10.0 mi NW 10.4 mph - N/A   Clear
7:58 AM 51.3 °F - 36.3 °F 57% 29.96 in 10.0 mi NW 16.1 mph - N/A   Clear
8:58 AM 54.3 °F - 37.4 °F 53% 29.97 in 10.0 mi WNW 15.0 mph - N/A   Clear
9:58 AM 56.7 °F - 37.9 °F 50% 29.97 in 10.0 mi WNW 15.0 mph - N/A   Clear
10:58 AM 58.6 °F - 38.5 °F 47% 29.97 in 10.0 mi WNW 15.0 mph 20.7 mph N/A   Clear
11:58 AM 60.4 °F - 37.8 °F 43% 29.95 in 10.0 mi NW 17.3 mph 21.9 mph N/A   Clear
12:58 PM 61.7 °F - 38.3 °F 42% 29.93 in 10.0 mi WNW 11.5 mph 20.7 mph N/A   Mostly Cloudy
1:21 PM 62.6 °F - 39.2 °F 42% 29.91 in 10.0 mi NW 11.5 mph 20.7 mph N/A   Partly Cloudy
1:58 PM 64.0 °F - 39.2 °F 40% 29.91 in 10.0 mi NW 13.8 mph 20.7 mph N/A   Clear
2:35 PM 64.4 °F - 39.2 °F 40% 29.90 in 10.0 mi NW 15.0 mph 20.7 mph N/A   Clear
2:58 PM 64.6 °F - 39.7 °F 40% 29.90 in 10.0 mi Variable 6.9 mph 18.4 mph N/A   Clear
3:56 PM 66.2 °F - 39.2 °F 37% 29.88 in 10.0 mi NW 12.7 mph 19.6 mph N/A   Clear
3:58 PM 66.0 °F - 38.8 °F 37% 29.89 in 10.0 mi NW 12.7 mph 19.6 mph N/A   Clear
4:58 PM 66.0 °F - 36.3 °F 33% 29.88 in 10.0 mi WNW 11.5 mph 18.4 mph N/A   Partly Cloudy
5:24 PM 64.4 °F - 32.0 °F 30% 29.87 in 10.0 mi West 13.8 mph - N/A   Mostly Cloudy
5:58 PM 63.7 °F - 34.5 °F 34% 29.88 in 10.0 mi WNW 10.4 mph - N/A   Mostly Cloudy
6:58 PM 63.0 °F - 34.3 °F 34% 29.87 in 10.0 mi NW 8.1 mph - N/A   Mostly Cloudy
7:58 PM 61.7 °F - 34.7 °F 36% 29.88 in 10.0 mi NW 6.9 mph - N/A   Mostly Cloudy
8:58 PM 59.0 °F - 38.5 °F 47% 29.89 in 10.0 mi WSW 5.8 mph - N/A   Overcast
9:58 PM 55.2 °F - 38.3 °F 53% 29.90 in 10.0 mi SW 6.9 mph - N/A   Clear
10:58 PM 54.5 °F - 39.6 °F 57% 29.90 in 10.0 mi SSW 5.8 mph - N/A   Partly Cloudy
11:58 PM 54.1 °F - 42.1 °F 64% 29.89 in 10.0 mi WSW 10.4 mph - N/A   Clear